When you browse on this site, cookies collect data to enhance your experience and personalize the content and advertising you see.
Visit our Privacy Policy to learn more. By continuing to use the site, you agree to this use of cookies and data.
  • en France
  • Liste des pays
  • À 7 jours
  • Température de l'eau
  • Carte satellitaire
  • Carte météo
  • Widgets météo
  • user-avatar
    Se connecter

    Météo par heure à Strasbourg

    Ce jour, 23 Juillet, Mardi

    Heure Température Précipitation Vent Pression Humidité
    00:00 +22°C° 0 mm 1 m/s 754 mmHg 62%
    01:00 +21°C° 0 mm 1 m/s 754 mmHg 64%
    02:00 +21°C° 0 mm 1 m/s 754 mmHg 65%
    03:00 +21°C° 0 mm 1 m/s 753 mmHg 66%
    04:00 +20°C° 0 mm 1 m/s 753 mmHg 68%
    05:00 +21°C° 0 mm 1 m/s 753 mmHg 67%
    06:00 +22°C° 0 mm 1 m/s 753 mmHg 67%
    07:00 +23°C° 0 mm 1 m/s 753 mmHg 67%
    08:00 +25°C° 0 mm 1 m/s 753 mmHg 62%
    09:00 +27°C° 0 mm 1 m/s 753 mmHg 58%
    10:00 +29°C° 0 mm 1 m/s 753 mmHg 54%
    11:00 +30°C° 0 mm 1 m/s 752 mmHg 51%
    12:00 +32°C° 0 mm 1 m/s 752 mmHg 48%
    13:00 +33°C° 0 mm 1 m/s 752 mmHg 45%
    14:00 +35°C° 0 mm 2 m/s 752 mmHg 44%
    15:00 +35°C° 0 mm 2 m/s 751 mmHg 43%
    16:00 +35°C° 0 mm 2 m/s 751 mmHg 42%
    17:00 +34°C° 0 mm 2 m/s 751 mmHg 47%
    18:00 +32°C° 0 mm 2 m/s 750 mmHg 52%
    19:00 +31°C° 0 mm 2 m/s 750 mmHg 58%
    20:00 +29°C° 0 mm 1 m/s 750 mmHg 62%
    21:00 +27°C° 0 mm 1 m/s 750 mmHg 66%
    22:00 +26°C° 0 mm 1 m/s 750 mmHg 70%
    23:00 +25°C° 0 mm 1 m/s 750 mmHg 72%

    Demain, 24 Juillet, Mercredi

    Heure Température Précipitation Vent Pression Humidité
    00:00 +24°C° 0 mm 1 m/s 750 mmHg 74%
    01:00 +24°C° 0 mm 1 m/s 750 mmHg 76%
    02:00 +23°C° 0 mm 1 m/s 750 mmHg 77%
    03:00 +23°C° 0 mm 1 m/s 749 mmHg 78%
    04:00 +22°C° 0 mm 1 m/s 749 mmHg 79%
    05:00 +23°C° 0 mm 1 m/s 749 mmHg 77%
    06:00 +24°C° 0 mm 1 m/s 749 mmHg 75%
    07:00 +25°C° 0 mm 1 m/s 750 mmHg 73%
    08:00 +27°C° 0 mm 1 m/s 749 mmHg 67%
    09:00 +29°C° 0 mm 1 m/s 749 mmHg 62%
    10:00 +31°C° 0 mm 1 m/s 749 mmHg 56%
    11:00 +32°C° 0 mm 1 m/s 749 mmHg 53%
    12:00 +33°C° 0 mm 1 m/s 749 mmHg 49%
    13:00 +35°C° 0 mm 1 m/s 749 mmHg 46%
    14:00 +35°C° 0 mm 1 m/s 749 mmHg 44%
    15:00 +35°C° 0 mm 1 m/s 748 mmHg 42%
    16:00 +36°C° 0 mm 1 m/s 748 mmHg 41%
    17:00 +35°C° 0 mm 1 m/s 748 mmHg 46%
    18:00 +34°C° 0 mm 1 m/s 748 mmHg 51%
    19:00 +31°C° 0 mm 0 m/s 748 mmHg 56%
    20:00 +29°C° 0 mm 0 m/s 748 mmHg 58%
    21:00 +29°C° 0 mm 1 m/s 749 mmHg 60%
    22:00 +28°C° 0 mm 1 m/s 749 mmHg 62%
    23:00 +27°C° 0 mm 1 m/s 749 mmHg 65%

    Après-demain, 25 Juillet, Jeudi

    Heure Température Précipitation Vent Pression Humidité
    00:00 +26°C° 0 mm 1 m/s 749 mmHg 67%
    01:00 +23°C° 0 mm 0 m/s 749 mmHg 69%
    02:00 +23°C° 0 mm 0 m/s 749 mmHg 71%
    03:00 +22°C° 0 mm 0 m/s 749 mmHg 74%
    04:00 +22°C° 0 mm 0 m/s 749 mmHg 76%
    05:00 +23°C° 0 mm 0 m/s 749 mmHg 74%
    06:00 +24°C° 0 mm 0 m/s 749 mmHg 73%
    07:00 +24°C° 0 mm 0 m/s 749 mmHg 72%
    08:00 +28°C° 0 mm 1 m/s 749 mmHg 66%
    09:00 +30°C° 0 mm 1 m/s 749 mmHg 61%
    10:00 +32°C° 0 mm 1 m/s 749 mmHg 56%
    11:00 +33°C° 0 mm 1 m/s 749 mmHg 51%
    12:00 +36°C° 0 mm 2 m/s 748 mmHg 46%
    13:00 +37°C° 0 mm 2 m/s 748 mmHg 41%
    14:00 +37°C° 0 mm 2 m/s 748 mmHg 40%
    15:00 +38°C° 0 mm 2 m/s 748 mmHg 38%
    16:00 +38°C° 0 mm 2 m/s 747 mmHg 37%
    17:00 +36°C° 0 mm 2 m/s 747 mmHg 42%
    18:00 +35°C° 0 mm 2 m/s 747 mmHg 47%
    19:00 +34°C° 0 mm 2 m/s 747 mmHg 52%
    20:00 +31°C° 0 mm 2 m/s 747 mmHg 57%
    21:00 +29°C° 0 mm 2 m/s 747 mmHg 61%
    22:00 +28°C° 0 mm 2 m/s 747 mmHg 66%
    23:00 +27°C° 0 mm 1 m/s 747 mmHg 69%

    26 Juillet, Vendredi

    Heure Température Précipitation Vent Pression Humidité
    00:00 +26°C° 0 mm 1 m/s 747 mmHg 72%
    01:00 +26°C° 0 mm 1 m/s 747 mmHg 74%
    02:00 +25°C° 0 mm 1 m/s 747 mmHg 76%
    03:00 +25°C° 0 mm 1 m/s 747 mmHg 77%
    04:00 +24°C° 0 mm 1 m/s 746 mmHg 78%
    05:00 +25°C° 0 mm 1 m/s 746 mmHg 76%
    06:00 +26°C° 0 mm 1 m/s 746 mmHg 74%
    07:00 +26°C° 0 mm 1 m/s 746 mmHg 72%
    08:00 +28°C° 0 mm 1 m/s 746 mmHg 66%
    09:00 +30°C° 0 mm 1 m/s 746 mmHg 60%
    10:00 +31°C° 0 mm 1 m/s 746 mmHg 55%
    11:00 +33°C° 0 mm 1 m/s 746 mmHg 50%
    12:00 +34°C° 0 mm 1 m/s 745 mmHg 46%
    13:00 +35°C° 0 mm 1 m/s 745 mmHg 41%
    14:00 +36°C° 0 mm 1 m/s 744 mmHg 40%
    15:00 +36°C° 0 mm 1 m/s 744 mmHg 39%
    16:00 +37°C° 0 mm 2 m/s 744 mmHg 38%
    17:00 +35°C° 0 mm 2 m/s 744 mmHg 43%
    18:00 +34°C° 0 mm 2 m/s 743 mmHg 49%
    19:00 +31°C° 0 mm 3 m/s 743 mmHg 54%
    20:00 +30°C° 0 mm 3 m/s 743 mmHg 58%
    21:00 +28°C° 0 mm 2 m/s 743 mmHg 63%
    22:00 +27°C° 0 mm 2 m/s 743 mmHg 67%
    23:00 +26°C° 0 mm 2 m/s 743 mmHg 69%

    27 Juillet, Samedi

    Heure Température Précipitation Vent Pression Humidité
    00:00 +25°C° 0 mm 1 m/s 743 mmHg 72%
    01:00 +24°C° 0 mm 1 m/s 742 mmHg 74%
    02:00 +24°C° 0 mm 1 m/s 742 mmHg 75%
    03:00 +24°C° 0 mm 1 m/s 742 mmHg 75%
    04:00 +23°C° 0 mm 1 m/s 742 mmHg 76%
    05:00 +24°C° 0.1 mm 1 m/s 742 mmHg 76%
    06:00 +24°C° 0.1 mm 1 m/s 742 mmHg 76%
    07:00 +25°C° 0.1 mm 1 m/s 742 mmHg 76%
    08:00 +26°C° 0.2 mm 1 m/s 742 mmHg 71%
    09:00 +27°C° 0.2 mm 1 m/s 742 mmHg 66%
    10:00 +29°C° 0.2 mm 1 m/s 742 mmHg 61%
    11:00 +30°C° 0 mm 1 m/s 742 mmHg 57%
    12:00 +31°C° 0 mm 1 m/s 741 mmHg 53%
    13:00 +32°C° 0 mm 1 m/s 741 mmHg 49%
    14:00 +32°C° 0 mm 1 m/s 741 mmHg 47%
    15:00 +34°C° 0 mm 2 m/s 741 mmHg 46%
    16:00 +34°C° 0 mm 2 m/s 741 mmHg 44%
    17:00 +32°C° 0.1 mm 2 m/s 741 mmHg 49%
    18:00 +31°C° 0.1 mm 3 m/s 741 mmHg 54%
    19:00 +29°C° 0.1 mm 3 m/s 740 mmHg 60%
    20:00 +28°C° 0.1 mm 2 m/s 741 mmHg 62%
    21:00 +27°C° 0.1 mm 2 m/s 741 mmHg 65%
    22:00 +25°C° 0.1 mm 1 m/s 741 mmHg 68%
    23:00 +24°C° 0 mm 1 m/s 741 mmHg 72%

    28 Juillet, Dimanche

    Heure Température Précipitation Vent Pression Humidité
    00:00 +24°C° 0 mm 1 m/s 742 mmHg 75%
    01:00 +23°C° 0 mm 1 m/s 742 mmHg 79%
    02:00 +22°C° 0 mm 1 m/s 742 mmHg 83%
    03:00 +22°C° 0 mm 1 m/s 742 mmHg 87%
    04:00 +22°C° 0 mm 1 m/s 742 mmHg 90%
    05:00 +22°C° 0.1 mm 1 m/s 742 mmHg 89%
    06:00 +23°C° 0.1 mm 1 m/s 743 mmHg 87%
    07:00 +23°C° 0.1 mm 1 m/s 743 mmHg 86%
    08:00 +24°C° 0.2 mm 2 m/s 743 mmHg 81%
    09:00 +25°C° 0.2 mm 3 m/s 743 mmHg 77%
    10:00 +26°C° 0.2 mm 3 m/s 744 mmHg 73%
    11:00 +26°C° 0.4 mm 4 m/s 744 mmHg 72%
    12:00 +26°C° 0.4 mm 4 m/s 744 mmHg 70%
    13:00 +26°C° 0.4 mm 4 m/s 744 mmHg 69%
    14:00 +25°C° 0.3 mm 4 m/s 744 mmHg 70%
    15:00 +25°C° 0.3 mm 4 m/s 744 mmHg 71%
    16:00 +23°C° 0.3 mm 4 m/s 745 mmHg 72%
    17:00 +22°C° 0.6 mm 4 m/s 745 mmHg 78%
    18:00 +20°C° 0.6 mm 3 m/s 745 mmHg 83%
    19:00 +19°C° 0.6 mm 3 m/s 745 mmHg 89%
    20:00 +19°C° 0.2 mm 2 m/s 746 mmHg 90%
    21:00 +18°C° 0.2 mm 2 m/s 746 mmHg 90%
    22:00 +18°C° 0.2 mm 2 m/s 747 mmHg 91%
    23:00 +18°C° 0 mm 2 m/s 747 mmHg 91%
    Voir plus